Location: Aiyekoto
(8.4333°N, 4.3667°E)
Time: 14:08:54
(UTC+00:00)

ATLAS 2A CENTAUR R/B - Pass Details

Date: 07 June 2020
Orbit: 244 x 14740 km, 26.8° (Epoch: 07 July)

Event Time Altitude Azimuth Distance (km) Brightness Sun altitude
Exits shadow 03:00:19 84° 261° (W) 1,236 3.8 -32.2°
Maximum altitude 03:00:34 88° 329° (NNW) 1,195 3.8 -32.1°
Drops below altitude 10° 03:04:47 10° 62° (ENE) 2,014 6.1 -31.3°
Sets 03:06:06 0° 63° (ENE) 2,589 6.9 -31.0°
